Regional Weather Roundup
Issued by NWS Jackson, KY

Home | Current Version | Previous Version | Graphics & Text | Print | Product List | Glossary On
Versions: 1 2 3 4 5 6 7 8 9 10 11 12 13 14 15 16 17 18 19 20 21 22 23 24 25 26 27 28 29 30 31 32 33 34 35 36 37 38 39 40 41 42 43 44 45 46 47 48 49 50
000
ASUS43 KJKL 281005
RWRJKL

EAST KENTUCKY HOURLY WEATHER ROUNDUP
NATIONAL WEATHER SERVICE JACKSON KY
500 AM EST FRI NOV 28 2014

NOTE: "FAIR" INDICATES FEW OR NO CLOUDS BELOW 12,000 FEET WITH
NO SIGNIFICANT WEATHER AND/OR OBSTRUCTIONS TO VISIBILITY.

* THESE REPORTS ARE NOT UNDER NWS QUALITY CONTROL AND MAY NOT
  REPORT WEATHER SUCH AS PRECIPITATION AND FOG.

KYZ079-080-083-085-087-088-110-112-115-119-120-281100
...EASTERN KENTUCKY...

CITY           SKY/WX    TMP DP  RH WIND       PRES   REMARKS
JACKSON        CLOUDY    27  16  63 CALM      30.36R
LONDON         CLOUDY    26  16  65 NW3       30.39S
SOMERSET*      PTCLDY    25  18  74 CALM      30.41F
MONTICELLO*    CLOUDY    27  19  71 CALM      30.43F
HARLAN APT*    CLOUDY    28  21  74 NW6       30.35R WCI  22
BLACK MTN*       N/A     16  16 100 NW2         N/A
PIKEVILLE APT* CLOUDY    27  21  80 W7        30.34R WCI  19
BIG SANDY*     CLOUDY    29  22  75 NW5       30.36R WCI  24
MOREHEAD APT*  CLOUDY    27  21  80 W3        30.40S
$$

KYZ035-036-041-042-044-050-067-078-099-281100
...CENTRAL KENTUCKY...

CITY           SKY/WX    TMP DP  RH WIND       PRES   REMARKS
MT STERLING*   CLOUDY    27  21  80 CALM      30.39F
FLEMING/MASON* MOCLDY    25  22  89 CALM      30.39F
DANVILLE*      CLOUDY    25  19  80 W3        30.41S
RICHMOND*      CLOUDY    27  19  74 SW3       30.38F
LEXINGTON      PTCLDY    24  18  77 W5        30.39F WCI  18
FRANKFORT      CLOUDY    26  20  77 W5        30.40S WCI  20
$$

KYZ091>093-OHZ055-061-077-WVZ005-015-034-035-042-281100
...SOUTHERN OHIO/WEST VIRGINIA...

CITY           SKY/WX    TMP DP  RH WIND       PRES   REMARKS
COVINGTON      CLOUDY    27  17  66 CALM      30.38S
COLUMBUS       PTCLDY    23  18  81 W8        30.36R WCI  14
DAYTON         PTCLDY    20  15  81 W3        30.35F
WILMINGTON     CLOUDY    24  15  68 NW3       30.36S
HUNTINGTON     CLOUDY    28  22  78 NW3       30.37R
CHARLESTON     FLURRIES  28  22  78 W6        30.35R WCI  22
PINEVILLE*     CLOUDY    29  23  79 MISG      30.34F
BECKLEY        LGT SNOW  23  18  81 W6        30.24R WCI  16
BLUEFIELD      CLOUDY    24  15  68 NW9       30.23R WCI  14
$$

VAZ002-007-008-TNZ017-027-036-066-071-281100
...SOUTHWEST VIRGINIA/EAST TENNESSEE...

CITY           SKY/WX    TMP DP  RH WIND       PRES   REMARKS
WISE*          CLOUDY    23  18  80 NW3       30.28R
JONESVILLE*    CLOUDY    27  18  69 CALM      30.38R
ABINGDON*      CLOUDY    26  21  82 CALM      30.28F
BRISTOL        CLOUDY    29  23  78 W5        30.33F WCI  24
KNOXVILLE      PTCLDY    26  20  77 W3        30.39R
OAK RIDGE      PTCLDY    29  18  63 CALM      30.41R
CROSSVILLE     MOCLDY    23  16  74 CALM      30.35S
NASHVILLE      PTCLDY    23  20  88 S3        30.43F
$$

...KEY TO REMARKS...
VSB - VISIBILITY IN MILES
WCI - WIND CHILL INDEX
HX  - HEAT INDEX

$$



USA.gov is the U.S. government's official web portal to all federal, state and local government web resources and services.